TimeEDT,TemperatureF,Dew PointF,Humidity,Sea Level PressureIn,VisibilityMPH,Wind Direction,Wind SpeedMPH,Gust SpeedMPH,PrecipitationIn,Events,Conditions,WindDirDegrees,DateUTC
12:51 AM,44.1,36.0,73,29.95,10.0,Calm,Calm,-,N/A,,Mostly Cloudy,0,2013-04-08 04:51:00
1:51 AM,44.1,37.0,76,29.93,10.0,Calm,Calm,-,N/A,,Clear,0,2013-04-08 05:51:00
2:51 AM,43.0,37.0,80,29.92,10.0,Calm,Calm,-,N/A,,Clear,0,2013-04-08 06:51:00
3:51 AM,42.1,37.0,82,29.92,10.0,Calm,Calm,-,N/A,,Clear,0,2013-04-08 07:51:00
4:51 AM,41.0,37.0,86,29.91,10.0,Calm,Calm,-,N/A,,Clear,0,2013-04-08 08:51:00
5:51 AM,39.9,37.0,89,29.94,10.0,Calm,Calm,-,N/A,,Clear,0,2013-04-08 09:51:00
6:51 AM,44.1,37.9,79,29.95,10.0,Variable,5.8,-,N/A,,Clear,0,2013-04-08 10:51:00
7:51 AM,50.0,37.0,61,29.96,10.0,NW,16.1,24.2,N/A,,Clear,310,2013-04-08 11:51:00
8:51 AM,51.1,34.0,52,29.97,10.0,NW,20.7,29.9,N/A,,Clear,310,2013-04-08 12:51:00
9:51 AM,54.0,33.1,45,29.99,10.0,NW,16.1,21.9,N/A,,Clear,310,2013-04-08 13:51:00
10:51 AM,54.0,33.1,45,30.02,10.0,NNW,13.8,24.2,N/A,,Clear,340,2013-04-08 14:51:00
11:51 AM,55.0,33.1,43,30.03,10.0,NW,10.4,18.4,N/A,,Clear,310,2013-04-08 15:51:00
12:51 PM,57.0,32.0,39,30.03,10.0,Variable,4.6,-,N/A,,Clear,0,2013-04-08 16:51:00
1:51 PM,59.0,30.9,35,30.02,10.0,WNW,6.9,-,N/A,,Clear,300,2013-04-08 17:51:00
2:51 PM,61.0,28.9,30,30.03,10.0,North,10.4,-,N/A,,Clear,350,2013-04-08 18:51:00
3:51 PM,61.0,30.0,31,30.01,10.0,East,3.5,-,N/A,,Clear,80,2013-04-08 19:51:00
4:51 PM,62.1,28.9,29,30.03,10.0,Calm,Calm,-,N/A,,Clear,0,2013-04-08 20:51:00
5:51 PM,55.9,36.0,47,30.03,10.0,ESE,9.2,-,N/A,,Clear,110,2013-04-08 21:51:00
6:51 PM,52.0,35.1,53,30.05,10.0,SSE,6.9,-,N/A,,Clear,160,2013-04-08 22:51:00
7:51 PM,48.0,35.1,61,30.08,10.0,SSE,4.6,-,N/A,,Clear,150,2013-04-08 23:51:00
8:51 PM,46.9,35.1,63,30.10,10.0,South,4.6,-,N/A,,Clear,190,2013-04-09 00:51:00
9:51 PM,45.0,36.0,71,30.10,10.0,Calm,Calm,-,N/A,,Clear,0,2013-04-09 01:51:00
10:51 PM,44.1,36.0,73,30.11,10.0,Calm,Calm,-,N/A,,Clear,0,2013-04-09 02:51:00
11:51 PM,42.1,35.1,76,30.09,10.0,Calm,Calm,-,N/A,,Clear,0,2013-04-09 03:51:00